Year,Month,Day,Hour,Minute,Value (Times are PST for temperature in C)
2015,06,14,00,00,10.40
2015,06,14,00,01,10.40
2015,06,14,00,02,10.40
2015,06,14,00,03,10.40
2015,06,14,00,04,10.40
2015,06,14,00,05,10.40
2015,06,14,00,06,10.40
2015,06,14,00,07,10.40
2015,06,14,00,08,10.40
2015,06,14,00,09,10.40
2015,06,14,00,10,10.40
2015,06,14,00,11,10.40
2015,06,14,00,12,10.40
2015,06,14,00,13,10.40
2015,06,14,00,14,10.40
2015,06,14,00,15,10.40
2015,06,14,00,16,10.40
2015,06,14,00,17,10.40
2015,06,14,00,18,10.40
2015,06,14,00,19,10.40
2015,06,14,00,20,10.40
2015,06,14,00,21,10.60
2015,06,14,00,22,10.60
2015,06,14,00,23,10.60
2015,06,14,00,24,10.60
2015,06,14,00,25,10.60
2015,06,14,00,26,10.60
2015,06,14,00,27,10.60
2015,06,14,00,28,10.60
2015,06,14,00,29,10.60
2015,06,14,00,30,10.60
2015,06,14,00,31,10.60
2015,06,14,00,32,10.60
2015,06,14,00,33,10.60
2015,06,14,00,34,10.70
2015,06,14,00,35,10.70
2015,06,14,00,36,10.70
2015,06,14,00,37,10.70
2015,06,14,00,38,10.70
2015,06,14,00,39,10.70
2015,06,14,00,40,10.70
2015,06,14,00,41,10.70
2015,06,14,00,42,10.70
2015,06,14,00,43,10.70
2015,06,14,00,44,10.70
2015,06,14,00,45,10.80
2015,06,14,00,46,10.80
2015,06,14,00,47,10.80
2015,06,14,00,48,10.80
2015,06,14,00,49,10.80
2015,06,14,00,50,10.80
2015,06,14,00,51,10.80
2015,06,14,00,52,10.90
2015,06,14,00,53,10.90
2015,06,14,00,54,10.90
2015,06,14,00,55,10.90
2015,06,14,00,56,10.90
2015,06,14,00,57,10.90
2015,06,14,00,58,10.90
2015,06,14,00,59,10.90
2015,06,14,01,00,10.90
2015,06,14,01,01,10.90
2015,06,14,01,02,10.90
2015,06,14,01,03,10.90
2015,06,14,01,04,10.90
2015,06,14,01,05,10.90
2015,06,14,01,06,10.90
2015,06,14,01,07,10.90
2015,06,14,01,08,10.90
2015,06,14,01,09,10.90
2015,06,14,01,10,10.90
2015,06,14,01,11,10.90
2015,06,14,01,12,10.90
2015,06,14,01,13,11.00
2015,06,14,01,14,11.10
2015,06,14,01,15,11.10
2015,06,14,01,16,11.10
2015,06,14,01,17,11.10
2015,06,14,01,18,11.10
2015,06,14,01,19,11.10
2015,06,14,01,20,11.10
2015,06,14,01,21,11.10
2015,06,14,01,22,11.10
2015,06,14,01,23,11.20
2015,06,14,01,24,11.20
2015,06,14,01,25,11.20
2015,06,14,01,26,11.20
2015,06,14,01,27,11.20
2015,06,14,01,28,11.20
2015,06,14,01,29,11.30
2015,06,14,01,30,11.30
2015,06,14,01,31,11.30
2015,06,14,01,32,11.30
2015,06,14,01,33,11.30
2015,06,14,01,34,11.30
2015,06,14,01,35,11.20
2015,06,14,01,36,11.20
2015,06,14,01,37,11.20
2015,06,14,01,38,11.20
2015,06,14,01,39,11.20
2015,06,14,01,40,11.20
2015,06,14,01,41,11.10
2015,06,14,01,42,11.10
2015,06,14,01,43,11.10
2015,06,14,01,44,11.10
2015,06,14,01,45,11.10
2015,06,14,01,46,11.10
2015,06,14,01,47,11.10
2015,06,14,01,48,11.10
2015,06,14,01,49,11.00
2015,06,14,01,50,10.90
2015,06,14,01,51,10.90
2015,06,14,01,52,10.90
2015,06,14,01,53,10.90
2015,06,14,01,54,10.90
2015,06,14,01,55,10.90
2015,06,14,01,56,10.90
2015,06,14,01,57,10.90
2015,06,14,01,58,10.80
2015,06,14,01,59,10.80
2015,06,14,02,00,10.80
2015,06,14,02,01,10.80
2015,06,14,02,02,10.70
2015,06,14,02,03,10.70
2015,06,14,02,04,10.70
2015,06,14,02,05,10.70
2015,06,14,02,06,10.60
2015,06,14,02,07,10.60
2015,06,14,02,08,10.60
2015,06,14,02,09,10.60
2015,06,14,02,10,10.60
2015,06,14,02,11,10.60
2015,06,14,02,12,10.60
2015,06,14,02,13,10.60
2015,06,14,02,14,10.50
2015,06,14,02,15,10.40
2015,06,14,02,16,10.40
2015,06,14,02,17,10.40
2015,06,14,02,18,10.40
2015,06,14,02,19,10.40
2015,06,14,02,20,10.40
2015,06,14,02,21,10.40
2015,06,14,02,22,10.40
2015,06,14,02,23,10.40
2015,06,14,02,24,10.40
2015,06,14,02,25,10.40
2015,06,14,02,26,10.40
2015,06,14,02,27,10.40
2015,06,14,02,28,10.40
2015,06,14,02,29,10.40
2015,06,14,02,30,10.40
2015,06,14,02,31,10.40
2015,06,14,02,32,10.40
2015,06,14,02,33,10.40
2015,06,14,02,34,10.40
2015,06,14,02,35,10.40
2015,06,14,02,36,10.40
2015,06,14,02,37,10.40
2015,06,14,02,38,10.40
2015,06,14,02,39,10.40
2015,06,14,02,40,10.30
2015,06,14,02,41,10.30
2015,06,14,02,42,10.30
2015,06,14,02,43,10.30
2015,06,14,02,44,10.30
2015,06,14,02,45,10.30
2015,06,14,02,46,10.30
2015,06,14,02,47,10.30
2015,06,14,02,48,10.30
2015,06,14,02,49,10.30
2015,06,14,02,50,10.30
2015,06,14,02,51,10.30
2015,06,14,02,52,10.30
2015,06,14,02,53,10.30
2015,06,14,02,54,10.30
2015,06,14,02,55,10.30
2015,06,14,02,56,10.30
2015,06,14,02,57,10.30
2015,06,14,02,58,10.30
2015,06,14,02,59,10.30
2015,06,14,03,00,10.30
2015,06,14,03,01,10.30
2015,06,14,03,02,10.30
2015,06,14,03,03,10.30
2015,06,14,03,04,10.30
2015,06,14,03,05,10.30
2015,06,14,03,06,10.30
2015,06,14,03,07,10.30
2015,06,14,03,08,10.30
2015,06,14,03,09,10.30
2015,06,14,03,10,10.30
2015,06,14,03,11,10.30
2015,06,14,03,12,10.30
2015,06,14,03,13,10.30
2015,06,14,03,14,10.30
2015,06,14,03,15,10.30
2015,06,14,03,16,10.20
2015,06,14,03,17,10.20
2015,06,14,03,18,10.20
2015,06,14,03,19,10.30
2015,06,14,03,20,10.30
2015,06,14,03,21,10.30
2015,06,14,03,22,10.40
2015,06,14,03,23,10.50
2015,06,14,03,24,10.60
2015,06,14,03,25,10.60
2015,06,14,03,26,10.70
2015,06,14,03,27,10.80
2015,06,14,03,28,10.90
2015,06,14,03,29,10.90
2015,06,14,03,30,11.00
2015,06,14,03,31,11.10
2015,06,14,03,32,11.10
2015,06,14,03,33,11.20
2015,06,14,03,34,11.20
2015,06,14,03,35,11.30
2015,06,14,03,36,11.30
2015,06,14,03,37,11.40
2015,06,14,03,38,11.40
2015,06,14,03,39,11.40
2015,06,14,03,40,11.40
2015,06,14,03,41,11.40
2015,06,14,03,42,11.40
2015,06,14,03,43,11.40
2015,06,14,03,44,11.40
2015,06,14,03,45,11.50
2015,06,14,03,46,11.60
2015,06,14,03,47,11.60
2015,06,14,03,48,11.60
2015,06,14,03,49,11.60
2015,06,14,03,50,11.60
2015,06,14,03,51,11.60
2015,06,14,03,52,11.60
2015,06,14,03,53,11.60
2015,06,14,03,54,11.60
2015,06,14,03,55,11.60
2015,06,14,03,56,11.60
2015,06,14,03,57,11.60
2015,06,14,03,58,11.60
2015,06,14,03,59,11.60
2015,06,14,04,00,11.60
2015,06,14,04,01,11.60
2015,06,14,04,02,11.70
2015,06,14,04,03,11.70
2015,06,14,04,04,11.70
2015,06,14,04,05,11.70
2015,06,14,04,06,11.80
2015,06,14,04,07,11.80
2015,06,14,04,08,11.80
2015,06,14,04,09,11.80
2015,06,14,04,10,11.80
2015,06,14,04,11,11.80
2015,06,14,04,12,11.80
2015,06,14,04,13,11.80
2015,06,14,04,14,11.80
2015,06,14,04,15,11.80
2015,06,14,04,16,11.80
2015,06,14,04,17,11.80
2015,06,14,04,18,11.80
2015,06,14,04,19,11.90
2015,06,14,04,20,11.90
2015,06,14,04,21,11.90
2015,06,14,04,22,11.90
2015,06,14,04,23,11.90
2015,06,14,04,24,11.90
2015,06,14,04,25,11.90
2015,06,14,04,26,11.90
2015,06,14,04,27,11.90
2015,06,14,04,28,12.00
2015,06,14,04,29,12.00
2015,06,14,04,30,12.00
2015,06,14,04,31,12.00
2015,06,14,04,32,12.00
2015,06,14,04,33,12.00
2015,06,14,04,34,12.00
2015,06,14,04,35,12.00
2015,06,14,04,36,12.00
2015,06,14,04,37,12.00
2015,06,14,04,38,12.00
2015,06,14,04,39,12.00
2015,06,14,04,40,12.00
2015,06,14,04,41,11.90
2015,06,14,04,42,11.90
2015,06,14,04,43,11.90
2015,06,14,04,44,11.90
2015,06,14,04,45,11.90
2015,06,14,04,46,11.90
2015,06,14,04,47,11.80
2015,06,14,04,48,11.80
2015,06,14,04,49,11.80
2015,06,14,04,50,11.80
2015,06,14,04,51,11.80
2015,06,14,04,52,11.80
2015,06,14,04,53,11.80
2015,06,14,04,54,11.80
2015,06,14,04,55,11.80
2015,06,14,04,56,11.70
2015,06,14,04,57,11.70
2015,06,14,04,58,11.60
2015,06,14,04,59,11.60
2015,06,14,05,00,11.60
2015,06,14,05,01,11.60
2015,06,14,05,02,11.50
2015,06,14,05,03,11.40
2015,06,14,05,04,11.40
2015,06,14,05,05,11.40
2015,06,14,05,06,11.30
2015,06,14,05,07,11.30
2015,06,14,05,08,11.20
2015,06,14,05,09,11.20
2015,06,14,05,10,11.10
2015,06,14,05,11,11.10
2015,06,14,05,12,11.10
2015,06,14,05,13,11.10
2015,06,14,05,14,11.00
2015,06,14,05,15,10.90
2015,06,14,05,16,10.90
2015,06,14,05,17,10.90
2015,06,14,05,18,10.90
2015,06,14,05,19,10.90
2015,06,14,05,20,10.80
2015,06,14,05,21,10.80
2015,06,14,05,22,10.70
2015,06,14,05,23,10.70
2015,06,14,05,24,10.60
2015,06,14,05,25,10.60
2015,06,14,05,26,10.60
2015,06,14,05,27,10.60
2015,06,14,05,28,10.60
2015,06,14,05,29,10.50
2015,06,14,05,30,10.40
2015,06,14,05,31,10.40
2015,06,14,05,32,10.40
2015,06,14,05,33,10.40
2015,06,14,05,34,10.30
2015,06,14,05,35,10.30
2015,06,14,05,36,10.20
2015,06,14,05,37,10.20
2015,06,14,05,38,10.10
2015,06,14,05,39,10.10
2015,06,14,05,40,10.10
2015,06,14,05,41,10.10
2015,06,14,05,42,10.00
2015,06,14,05,43,9.90
2015,06,14,05,44,9.90
2015,06,14,05,45,9.90
2015,06,14,05,46,9.90
2015,06,14,05,47,9.90
2015,06,14,05,48,9.90
2015,06,14,05,49,9.80
2015,06,14,05,50,9.80
2015,06,14,05,51,9.80
2015,06,14,05,52,9.80
2015,06,14,05,53,9.80
2015,06,14,05,54,9.80
2015,06,14,05,55,9.70
2015,06,14,05,56,9.70
2015,06,14,05,57,9.70
2015,06,14,05,58,9.70
2015,06,14,05,59,9.70
2015,06,14,06,00,9.70
2015,06,14,06,01,9.70
2015,06,14,06,02,9.70
2015,06,14,06,03,9.70
2015,06,14,06,04,9.70
2015,06,14,06,05,9.70
2015,06,14,06,06,9.70
2015,06,14,06,07,9.70
2015,06,14,06,08,9.70
2015,06,14,06,09,9.70
2015,06,14,06,10,9.70
2015,06,14,06,11,9.70
2015,06,14,06,12,9.70
2015,06,14,06,13,9.70
2015,06,14,06,14,9.70
2015,06,14,06,15,9.70
2015,06,14,06,16,9.70
2015,06,14,06,17,9.70
2015,06,14,06,18,9.70
2015,06,14,06,19,9.70
2015,06,14,06,20,9.70
2015,06,14,06,21,9.70
2015,06,14,06,22,9.70
2015,06,14,06,23,9.80
2015,06,14,06,24,9.80
2015,06,14,06,25,9.80
2015,06,14,06,26,9.90
2015,06,14,06,27,9.90
2015,06,14,06,28,9.90
2015,06,14,06,29,9.90
2015,06,14,06,30,9.90
2015,06,14,06,31,9.90
2015,06,14,06,32,9.90
2015,06,14,06,33,9.90
2015,06,14,06,34,10.10
2015,06,14,06,35,10.10
2015,06,14,06,36,10.10
2015,06,14,06,37,10.10
2015,06,14,06,38,10.10
2015,06,14,06,39,10.10
2015,06,14,06,40,10.10
2015,06,14,06,41,10.10
2015,06,14,06,42,10.20
2015,06,14,06,43,10.20
2015,06,14,06,44,10.20
2015,06,14,06,45,10.30
2015,06,14,06,46,10.30
2015,06,14,06,47,10.40
2015,06,14,06,48,10.40
2015,06,14,06,49,10.40
2015,06,14,06,50,10.50
2015,06,14,06,51,10.60
2015,06,14,06,52,10.60
2015,06,14,06,53,10.70
2015,06,14,06,54,10.70
2015,06,14,06,55,10.80
2015,06,14,06,56,10.80
2015,06,14,06,57,10.90
2015,06,14,06,58,10.90
2015,06,14,06,59,10.90
2015,06,14,07,00,11.00
2015,06,14,07,01,11.10
2015,06,14,07,02,11.10
2015,06,14,07,03,11.10
2015,06,14,07,04,11.20
2015,06,14,07,05,11.20
2015,06,14,07,06,11.20
2015,06,14,07,07,11.30
2015,06,14,07,08,11.40
2015,06,14,07,09,11.40
2015,06,14,07,10,11.40
2015,06,14,07,11,11.40
2015,06,14,07,12,11.50
2015,06,14,07,13,11.60
2015,06,14,07,14,11.60
2015,06,14,07,15,11.60
2015,06,14,07,16,11.60
2015,06,14,07,17,11.60
2015,06,14,07,18,11.70
2015,06,14,07,19,11.70
2015,06,14,07,20,11.70
2015,06,14,07,21,11.80
2015,06,14,07,22,11.80
2015,06,14,07,23,11.90
2015,06,14,07,24,11.90
2015,06,14,07,25,12.00
2015,06,14,07,26,12.10
2015,06,14,07,27,12.20
2015,06,14,07,28,12.30
2015,06,14,07,29,12.40
2015,06,14,07,30,12.50
2015,06,14,07,31,12.60
2015,06,14,07,32,12.70
2015,06,14,07,33,12.80
2015,06,14,07,34,12.90
2015,06,14,07,35,13.00
2015,06,14,07,36,13.10
2015,06,14,07,37,13.20
2015,06,14,07,38,13.30
2015,06,14,07,39,13.30
2015,06,14,07,40,13.40
2015,06,14,07,41,13.50
2015,06,14,07,42,13.50
2015,06,14,07,43,13.60
2015,06,14,07,44,13.70
2015,06,14,07,45,13.70
2015,06,14,07,46,13.80
2015,06,14,07,47,13.80
2015,06,14,07,48,13.90
2015,06,14,07,49,13.90
2015,06,14,07,50,14.00
2015,06,14,07,51,14.00
2015,06,14,07,52,14.10
2015,06,14,07,53,14.10
2015,06,14,07,54,14.20
2015,06,14,07,55,14.20
2015,06,14,07,56,14.20
2015,06,14,07,57,14.20
2015,06,14,07,58,14.30
2015,06,14,07,59,14.30
2015,06,14,08,00,14.30
2015,06,14,08,01,14.30
2015,06,14,08,02,14.40
2015,06,14,08,03,14.40
2015,06,14,08,04,14.40
2015,06,14,08,05,14.50
2015,06,14,08,06,14.50
2015,06,14,08,07,14.50
2015,06,14,08,08,14.60
2015,06,14,08,09,14.60
2015,06,14,08,10,14.70
2015,06,14,08,11,14.80
2015,06,14,08,12,14.80
2015,06,14,08,13,14.90
2015,06,14,08,14,14.90
2015,06,14,08,15,15.00
2015,06,14,08,16,15.00
2015,06,14,08,17,15.00
2015,06,14,08,18,15.10
2015,06,14,08,19,15.10
2015,06,14,08,20,15.20
2015,06,14,08,21,15.20
2015,06,14,08,22,15.30
2015,06,14,08,23,15.30
2015,06,14,08,24,15.30
2015,06,14,08,25,15.50
2015,06,14,08,26,15.50
2015,06,14,08,27,15.60
2015,06,14,08,28,15.70
2015,06,14,08,29,15.80
2015,06,14,08,30,15.90
2015,06,14,08,31,16.00
2015,06,14,08,32,16.10
2015,06,14,08,33,16.10
2015,06,14,08,34,16.20
2015,06,14,08,35,16.30
2015,06,14,08,36,16.40
2015,06,14,08,37,16.50
2015,06,14,08,38,16.60
2015,06,14,08,39,16.70
2015,06,14,08,40,16.80
2015,06,14,08,41,16.80
2015,06,14,08,42,16.90
2015,06,14,08,43,16.90
2015,06,14,08,44,16.90
2015,06,14,08,45,16.90
2015,06,14,08,46,16.90
2015,06,14,08,47,16.90
2015,06,14,08,48,16.90
2015,06,14,08,49,16.90
2015,06,14,08,50,16.90
2015,06,14,08,51,17.00
2015,06,14,08,52,17.00
2015,06,14,08,53,17.10
2015,06,14,08,54,17.10
2015,06,14,08,55,17.20
2015,06,14,08,56,17.30
2015,06,14,08,57,17.30
2015,06,14,08,58,17.30
2015,06,14,08,59,17.40
2015,06,14,09,00,17.50
2015,06,14,09,01,17.60
2015,06,14,09,02,17.70
2015,06,14,09,03,17.80
2015,06,14,09,04,17.90
2015,06,14,09,05,17.90
2015,06,14,09,06,17.90
2015,06,14,09,07,18.00
2015,06,14,09,08,18.10
2015,06,14,09,09,18.10
2015,06,14,09,10,18.10
2015,06,14,09,11,18.20
2015,06,14,09,12,18.20
2015,06,14,09,13,18.20
2015,06,14,09,14,18.20
2015,06,14,09,15,18.20
2015,06,14,09,16,18.20
2015,06,14,09,17,18.30
2015,06,14,09,18,18.30
2015,06,14,09,19,18.30
2015,06,14,09,20,18.30
2015,06,14,09,21,18.30
2015,06,14,09,22,18.20
2015,06,14,09,23,18.20
2015,06,14,09,24,18.20
2015,06,14,09,25,18.20
2015,06,14,09,26,18.20
2015,06,14,09,27,18.30
2015,06,14,09,28,18.40
2015,06,14,09,29,18.40
2015,06,14,09,30,18.50
2015,06,14,09,31,18.60
2015,06,14,09,32,18.60
2015,06,14,09,33,18.60
2015,06,14,09,34,18.70
2015,06,14,09,35,18.70
2015,06,14,09,36,18.70
2015,06,14,09,37,18.80
2015,06,14,09,38,18.80
2015,06,14,09,39,18.80
2015,06,14,09,40,18.80
2015,06,14,09,41,18.80
2015,06,14,09,42,18.80
2015,06,14,09,43,18.80
2015,06,14,09,44,18.80
2015,06,14,09,45,18.80
2015,06,14,09,46,18.80
2015,06,14,09,47,18.80
2015,06,14,09,48,18.80
2015,06,14,09,49,18.80
2015,06,14,09,50,18.80
2015,06,14,09,51,18.70
2015,06,14,09,52,18.70
2015,06,14,09,53,18.80
2015,06,14,09,54,18.80
2015,06,14,09,55,18.90
2015,06,14,09,56,18.90
2015,06,14,09,57,18.90
2015,06,14,09,58,18.90
2015,06,14,09,59,18.80
2015,06,14,10,00,18.90
2015,06,14,10,01,18.90
2015,06,14,10,02,18.90
2015,06,14,10,03,18.90
2015,06,14,10,04,18.90
2015,06,14,10,05,18.90
2015,06,14,10,06,18.90
2015,06,14,10,07,18.90
2015,06,14,10,08,19.00
2015,06,14,10,09,19.10
2015,06,14,10,10,19.10
2015,06,14,10,11,19.10
2015,06,14,10,12,19.10
2015,06,14,10,13,19.10
2015,06,14,10,14,19.10
2015,06,14,10,15,19.10
2015,06,14,10,16,19.10
2015,06,14,10,17,19.10
2015,06,14,10,18,19.10
2015,06,14,10,19,19.20
2015,06,14,10,20,19.20
2015,06,14,10,21,19.30
2015,06,14,10,22,19.30
2015,06,14,10,23,19.40
2015,06,14,10,24,19.50
2015,06,14,10,25,19.60
2015,06,14,10,26,19.70
2015,06,14,10,27,19.70
2015,06,14,10,28,19.70
2015,06,14,10,29,19.70
2015,06,14,10,30,19.60
2015,06,14,10,31,19.50
2015,06,14,10,32,19.50
2015,06,14,10,33,19.60
2015,06,14,10,34,19.60
2015,06,14,10,35,19.70
2015,06,14,10,36,19.70
2015,06,14,10,37,19.70
2015,06,14,10,38,19.80
2015,06,14,10,39,19.70
2015,06,14,10,40,19.70
2015,06,14,10,41,19.70
2015,06,14,10,42,19.70
2015,06,14,10,43,19.60
2015,06,14,10,44,19.70
2015,06,14,10,45,19.70
2015,06,14,10,46,19.70
2015,06,14,10,47,19.70
2015,06,14,10,48,19.80
2015,06,14,10,49,19.90
2015,06,14,10,50,20.10
2015,06,14,10,51,20.20
2015,06,14,10,52,20.20
2015,06,14,10,53,20.20
2015,06,14,10,54,20.20
2015,06,14,10,55,20.30
2015,06,14,10,56,20.30
2015,06,14,10,57,20.20
2015,06,14,10,58,20.20
2015,06,14,10,59,20.20
2015,06,14,11,00,20.30
2015,06,14,11,01,20.30
2015,06,14,11,02,20.30
2015,06,14,11,03,20.40
2015,06,14,11,04,20.40
2015,06,14,11,05,20.30
2015,06,14,11,06,20.40
2015,06,14,11,07,20.40
2015,06,14,11,08,20.50
2015,06,14,11,09,20.50
2015,06,14,11,10,20.50
2015,06,14,11,11,20.50
2015,06,14,11,12,20.50
2015,06,14,11,13,20.50
2015,06,14,11,14,20.60
2015,06,14,11,15,20.70
2015,06,14,11,16,20.70
2015,06,14,11,17,20.80
2015,06,14,11,18,20.80
2015,06,14,11,19,20.80
2015,06,14,11,20,20.90
2015,06,14,11,21,20.90
2015,06,14,11,22,20.90
2015,06,14,11,23,20.90
2015,06,14,11,24,20.90
2015,06,14,11,25,20.90
2015,06,14,11,26,20.90
2015,06,14,11,27,20.80
2015,06,14,11,28,20.70
2015,06,14,11,29,20.70
2015,06,14,11,30,20.60
2015,06,14,11,31,20.50
2015,06,14,11,32,20.50
2015,06,14,11,33,20.40
2015,06,14,11,34,20.40
2015,06,14,11,35,20.50
2015,06,14,11,36,20.50
2015,06,14,11,37,20.60
2015,06,14,11,38,20.70
2015,06,14,11,39,20.80
2015,06,14,11,40,20.90
2015,06,14,11,41,21.00
2015,06,14,11,42,21.00
2015,06,14,11,43,21.10
2015,06,14,11,44,21.10
2015,06,14,11,45,21.10
2015,06,14,11,46,21.20
2015,06,14,11,47,21.30
2015,06,14,11,48,21.30
2015,06,14,11,49,21.40
2015,06,14,11,50,21.50
2015,06,14,11,51,21.60
2015,06,14,11,52,21.60
2015,06,14,11,53,21.60
2015,06,14,11,54,21.70
2015,06,14,11,55,21.80
2015,06,14,11,56,21.80
2015,06,14,11,57,21.80
2015,06,14,11,58,21.90
2015,06,14,11,59,21.90
2015,06,14,12,00,21.90
2015,06,14,12,01,21.90
2015,06,14,12,02,21.90
2015,06,14,12,03,21.70
2015,06,14,12,04,21.70
2015,06,14,12,05,21.70
2015,06,14,12,06,21.60
2015,06,14,12,07,21.60
2015,06,14,12,08,21.50
2015,06,14,12,09,21.50
2015,06,14,12,10,21.60
2015,06,14,12,11,21.60
2015,06,14,12,12,21.60
2015,06,14,12,13,21.70
2015,06,14,12,14,21.70
2015,06,14,12,15,21.70
2015,06,14,12,16,21.70
2015,06,14,12,17,21.90
2015,06,14,12,18,21.90
2015,06,14,12,19,22.00
2015,06,14,12,20,22.00
2015,06,14,12,21,22.00
2015,06,14,12,22,22.00
2015,06,14,12,23,22.00
2015,06,14,12,24,22.10
2015,06,14,12,25,22.20
2015,06,14,12,26,22.30
2015,06,14,12,27,22.40
2015,06,14,12,28,22.50
2015,06,14,12,29,22.50
2015,06,14,12,30,22.50
2015,06,14,12,31,22.30
2015,06,14,12,32,22.20
2015,06,14,12,33,22.20
2015,06,14,12,34,22.20
2015,06,14,12,35,22.20
2015,06,14,12,36,22.30
2015,06,14,12,37,22.30
2015,06,14,12,38,22.40
2015,06,14,12,39,22.60
2015,06,14,12,40,22.60
2015,06,14,12,41,22.60
2015,06,14,12,42,22.60
2015,06,14,12,43,22.60
2015,06,14,12,44,22.60
2015,06,14,12,45,22.60
2015,06,14,12,46,22.40
2015,06,14,12,47,22.40
2015,06,14,12,48,22.30
2015,06,14,12,49,22.30
2015,06,14,12,50,22.30
2015,06,14,12,51,22.30
2015,06,14,12,52,22.40
2015,06,14,12,53,22.40
2015,06,14,12,54,22.50
2015,06,14,12,55,22.60
2015,06,14,12,56,22.70
2015,06,14,12,57,22.80
2015,06,14,12,58,22.80
2015,06,14,12,59,22.90
2015,06,14,13,00,22.90
2015,06,14,13,01,22.90
2015,06,14,13,02,23.00
2015,06,14,13,03,23.10
2015,06,14,13,04,23.20
2015,06,14,13,05,23.20
2015,06,14,13,06,23.20
2015,06,14,13,07,23.30
2015,06,14,13,08,23.30
2015,06,14,13,09,23.20
2015,06,14,13,10,23.30
2015,06,14,13,11,23.30
2015,06,14,13,12,23.30
2015,06,14,13,13,23.30
2015,06,14,13,14,23.30
2015,06,14,13,15,23.30
2015,06,14,13,16,23.20
2015,06,14,13,17,23.20
2015,06,14,13,18,23.30
2015,06,14,13,19,23.30
2015,06,14,13,20,23.50
2015,06,14,13,21,23.60
2015,06,14,13,22,23.60
2015,06,14,13,23,23.60
2015,06,14,13,24,23.70
2015,06,14,13,25,23.70
2015,06,14,13,26,23.70
2015,06,14,13,27,23.60
2015,06,14,13,28,23.50
2015,06,14,13,29,23.30
2015,06,14,13,30,23.30
2015,06,14,13,31,23.30
2015,06,14,13,32,23.30
2015,06,14,13,33,23.30
2015,06,14,13,34,23.30
2015,06,14,13,35,23.30
2015,06,14,13,36,23.30
2015,06,14,13,37,23.30
2015,06,14,13,38,23.40
2015,06,14,13,39,23.60
2015,06,14,13,40,23.70
2015,06,14,13,41,23.80
2015,06,14,13,42,24.00
2015,06,14,13,43,24.10
2015,06,14,13,44,24.10
2015,06,14,13,45,24.10
2015,06,14,13,46,24.10
2015,06,14,13,47,24.20
2015,06,14,13,48,24.20
2015,06,14,13,49,24.20
2015,06,14,13,50,24.10
2015,06,14,13,51,24.00
2015,06,14,13,52,23.80
2015,06,14,13,53,23.60
2015,06,14,13,54,23.60
2015,06,14,13,55,23.50
2015,06,14,13,56,23.60
2015,06,14,13,57,23.60
2015,06,14,13,58,23.60
2015,06,14,13,59,23.60
2015,06,14,14,00,23.50
2015,06,14,14,01,23.50
2015,06,14,14,02,23.50
2015,06,14,14,03,23.40
2015,06,14,14,04,23.40
2015,06,14,14,05,23.50
2015,06,14,14,06,23.60
2015,06,14,14,07,23.60
2015,06,14,14,08,23.70
2015,06,14,14,09,23.70
2015,06,14,14,10,23.70
2015,06,14,14,11,23.70
2015,06,14,14,12,23.70
2015,06,14,14,13,23.80
2015,06,14,14,14,24.00
2015,06,14,14,15,24.10
2015,06,14,14,16,24.30
2015,06,14,14,17,24.40
2015,06,14,14,18,24.40
2015,06,14,14,19,24.50
2015,06,14,14,20,24.50
2015,06,14,14,21,24.40
2015,06,14,14,22,24.50
2015,06,14,14,23,24.50
2015,06,14,14,24,24.60
2015,06,14,14,25,24.60
2015,06,14,14,26,24.60
2015,06,14,14,27,24.40
2015,06,14,14,28,24.30
2015,06,14,14,29,24.30
2015,06,14,14,30,24.30
2015,06,14,14,31,24.30
2015,06,14,14,32,24.30
2015,06,14,14,33,24.30
2015,06,14,14,34,24.40
2015,06,14,14,35,24.40
2015,06,14,14,36,24.50
2015,06,14,14,37,24.50
2015,06,14,14,38,24.60
2015,06,14,14,39,24.60
2015,06,14,14,40,24.50
2015,06,14,14,41,24.30
2015,06,14,14,42,24.30
2015,06,14,14,43,24.30
2015,06,14,14,44,24.30
2015,06,14,14,45,24.30
2015,06,14,14,46,24.20
2015,06,14,14,47,24.20
2015,06,14,14,48,24.10
2015,06,14,14,49,24.10
2015,06,14,14,50,24.10
2015,06,14,14,51,24.10
2015,06,14,14,52,24.00
2015,06,14,14,53,23.90
2015,06,14,14,54,23.80
2015,06,14,14,55,23.80
2015,06,14,14,56,23.80
2015,06,14,14,57,23.80
2015,06,14,14,58,23.80
2015,06,14,14,59,23.80
2015,06,14,15,00,23.70
2015,06,14,15,01,23.70
2015,06,14,15,02,23.70
2015,06,14,15,03,23.80
2015,06,14,15,04,24.00
2015,06,14,15,05,24.10
2015,06,14,15,06,24.20
2015,06,14,15,07,24.20
2015,06,14,15,08,24.30
2015,06,14,15,09,24.30
2015,06,14,15,10,24.40
2015,06,14,15,11,24.40
2015,06,14,15,12,24.40
2015,06,14,15,13,24.50
2015,06,14,15,14,24.60
2015,06,14,15,15,24.60
2015,06,14,15,16,24.70
2015,06,14,15,17,24.60
2015,06,14,15,18,24.60
2015,06,14,15,19,24.60
2015,06,14,15,20,24.70
2015,06,14,15,21,24.70
2015,06,14,15,22,24.70
2015,06,14,15,23,24.70
2015,06,14,15,24,24.70
2015,06,14,15,25,24.70
2015,06,14,15,26,24.70
2015,06,14,15,27,24.60
2015,06,14,15,28,24.60
2015,06,14,15,29,24.60
2015,06,14,15,30,24.60
2015,06,14,15,31,24.70
2015,06,14,15,32,24.70
2015,06,14,15,33,24.70
2015,06,14,15,34,24.70
2015,06,14,15,35,24.80
2015,06,14,15,36,24.80
2015,06,14,15,37,24.80
2015,06,14,15,38,24.90
2015,06,14,15,39,24.90
2015,06,14,15,40,24.90
2015,06,14,15,41,25.00
2015,06,14,15,42,25.10
2015,06,14,15,43,25.10
2015,06,14,15,44,25.10
2015,06,14,15,45,25.10
2015,06,14,15,46,25.10
2015,06,14,15,47,25.10
2015,06,14,15,48,25.00
2015,06,14,15,49,24.90
2015,06,14,15,50,24.90
2015,06,14,15,51,24.90
2015,06,14,15,52,24.90
2015,06,14,15,53,24.80
2015,06,14,15,54,24.80
2015,06,14,15,55,24.80
2015,06,14,15,56,24.80
2015,06,14,15,57,24.70
2015,06,14,15,58,24.60
2015,06,14,15,59,24.60
2015,06,14,16,00,24.60
2015,06,14,16,01,24.60
2015,06,14,16,02,24.60
2015,06,14,16,03,24.50
2015,06,14,16,04,24.50
2015,06,14,16,05,24.60
2015,06,14,16,06,24.60
2015,06,14,16,07,24.60
2015,06,14,16,08,24.60
2015,06,14,16,09,24.60
2015,06,14,16,10,24.60
2015,06,14,16,11,24.50
2015,06,14,16,12,24.50
2015,06,14,16,13,24.50
2015,06,14,16,14,24.40
2015,06,14,16,15,24.20
2015,06,14,16,16,24.10
2015,06,14,16,17,24.10
2015,06,14,16,18,23.90
2015,06,14,16,19,23.80
2015,06,14,16,20,23.80
2015,06,14,16,21,23.70
2015,06,14,16,22,23.70
2015,06,14,16,23,23.70
2015,06,14,16,24,23.70
2015,06,14,16,25,23.70
2015,06,14,16,26,23.70
2015,06,14,16,27,23.70
2015,06,14,16,28,23.70
2015,06,14,16,29,23.70
2015,06,14,16,30,23.70
2015,06,14,16,31,23.70
2015,06,14,16,32,23.60
2015,06,14,16,33,23.60
2015,06,14,16,34,23.60
2015,06,14,16,35,23.50
2015,06,14,16,36,23.40
2015,06,14,16,37,23.40
2015,06,14,16,38,23.30
2015,06,14,16,39,23.30
2015,06,14,16,40,23.30
2015,06,14,16,41,23.30
2015,06,14,16,42,23.30
2015,06,14,16,43,23.30
2015,06,14,16,44,23.30
2015,06,14,16,45,23.30
2015,06,14,16,46,23.30
2015,06,14,16,47,23.30
2015,06,14,16,48,23.20
2015,06,14,16,49,23.20
2015,06,14,16,50,23.20
2015,06,14,16,51,23.20
2015,06,14,16,52,23.20
2015,06,14,16,53,23.10
2015,06,14,16,54,23.10
2015,06,14,16,55,23.10
2015,06,14,16,56,23.10
2015,06,14,16,57,23.10
2015,06,14,16,58,23.10
2015,06,14,16,59,22.90
2015,06,14,17,00,22.90
2015,06,14,17,01,23.00
2015,06,14,17,02,23.10
2015,06,14,17,03,23.00
2015,06,14,17,04,22.90
2015,06,14,17,05,23.10
2015,06,14,17,06,23.10
2015,06,14,17,07,23.10
2015,06,14,17,08,23.00
2015,06,14,17,09,23.00
2015,06,14,17,10,22.90
2015,06,14,17,11,22.90
2015,06,14,17,12,22.90
2015,06,14,17,13,22.90
2015,06,14,17,14,22.90
2015,06,14,17,15,22.90
2015,06,14,17,16,22.90
2015,06,14,17,17,22.90
2015,06,14,17,18,22.90
2015,06,14,17,19,22.90
2015,06,14,17,20,22.90
2015,06,14,17,21,22.80